Time,TemperatureF,DewpointF,PressureIn,WindDirection,WindDirectionDegrees,WindSpeedMPH,WindSpeedGustMPH,Humidity,HourlyPrecipIn,Conditions,Clouds,dailyrainin,SoftwareType,DateUTC
2013-03-31 00:00:00,48.6,44.6,30.05,West,278,9.0,9.0,86,0.00,,,0.21,Wunderground v.1.15,2013-03-31 05:00:00,
2013-03-31 00:05:00,48.5,44.5,30.04,West,279,9.0,19.0,86,0.00,,,0.00,Wunderground v.1.15,2013-03-31 05:05:00,
2013-03-31 00:15:00,48.3,44.6,30.05,WNW,288,9.0,19.0,87,0.00,,,0.00,Wunderground v.1.15,2013-03-31 05:15:00,
2013-03-31 00:20:00,48.3,44.6,30.04,WNW,286,9.0,19.0,87,0.00,,,0.00,Wunderground v.1.15,2013-03-31 05:20:00,
2013-03-31 00:25:00,48.3,44.6,30.05,WNW,292,8.0,19.0,87,0.00,,,0.00,Wunderground v.1.15,2013-03-31 05:25:00,
2013-03-31 00:35:00,48.3,44.9,30.05,WNW,292,8.0,19.0,88,0.00,,,0.00,Wunderground v.1.15,2013-03-31 05:35:00,
2013-03-31 00:40:00,48.2,44.8,30.05,WNW,293,9.0,9.0,88,0.00,,,0.00,Wunderground v.1.15,2013-03-31 05:40:00,
2013-03-31 00:50:00,48.6,44.9,30.06,NW,313,9.0,19.0,87,0.00,,,0.01,Wunderground v.1.15,2013-03-31 05:50:00,
2013-03-31 00:55:00,48.9,44.9,30.06,NW,305,10.0,19.0,86,0.00,,,0.01,Wunderground v.1.15,2013-03-31 05:55:00,
2013-03-31 01:00:00,48.7,44.7,30.06,WNW,302,11.0,11.0,86,0.00,,,0.01,Wunderground v.1.15,2013-03-31 06:00:00,
2013-03-31 01:10:00,48.3,44.3,30.05,WNW,301,4.0,4.0,86,0.00,,,0.01,Wunderground v.1.15,2013-03-31 06:10:00,
2013-03-31 01:15:00,48.2,44.2,30.05,WNW,301,1.0,19.0,86,0.00,,,0.01,Wunderground v.1.15,2013-03-31 06:15:00,
2013-03-31 01:20:00,48.1,43.8,30.05,WNW,301,0.0,19.0,85,0.00,,,0.01,Wunderground v.1.15,2013-03-31 06:20:00,
2013-03-31 01:30:00,47.9,43.9,30.04,West,265,6.0,6.0,86,0.00,,,0.01,Wunderground v.1.15,2013-03-31 06:30:00,
2013-03-31 01:35:00,47.7,43.7,30.04,West,262,5.0,19.0,86,0.00,,,0.01,Wunderground v.1.15,2013-03-31 06:35:00,
2013-03-31 01:40:00,47.5,43.8,30.05,West,273,6.0,19.0,87,0.00,,,0.01,Wunderground v.1.15,2013-03-31 06:40:00,
2013-03-31 01:50:00,47.1,44.0,30.06,WNW,296,8.0,8.0,89,0.00,,,0.01,Wunderground v.1.15,2013-03-31 06:50:00,
2013-03-31 02:00:00,46.7,43.6,30.06,WNW,292,5.0,19.0,89,0.00,,,0.01,Wunderground v.1.15,2013-03-31 07:00:00,
2013-03-31 02:05:00,46.4,43.3,30.05,West,281,6.0,19.0,89,0.00,,,0.01,Wunderground v.1.15,2013-03-31 07:05:00,
2013-03-31 02:14:00,45.9,43.1,30.05,West,279,7.0,19.0,90,0.00,,,0.01,Wunderground v.1.15,2013-03-31 07:14:00,
2013-03-31 02:20:00,45.5,42.4,30.05,West,275,6.0,19.0,89,0.00,,,0.01,Wunderground v.1.15,2013-03-31 07:20:00,
2013-03-31 02:25:00,45.1,42.3,30.05,West,269,7.0,19.0,90,0.00,,,0.01,Wunderground v.1.15,2013-03-31 07:25:00,
2013-03-31 02:35:00,44.4,41.7,30.05,West,265,7.0,19.0,90,0.00,,,0.01,Wunderground v.1.15,2013-03-31 07:35:00,
2013-03-31 02:45:00,44.2,41.5,30.05,West,267,9.0,10.0,90,0.00,,,0.01,Wunderground v.1.15,2013-03-31 07:45:00,
2013-03-31 02:50:00,44.2,41.2,30.05,West,271,10.0,19.0,89,0.00,,,0.01,Wunderground v.1.15,2013-03-31 07:50:00,
2013-03-31 02:55:00,44.1,41.1,30.05,West,273,10.0,19.0,89,0.00,,,0.01,Wunderground v.1.15,2013-03-31 07:55:00,
2013-03-31 03:05:00,43.7,40.7,30.05,West,271,9.0,19.0,89,0.00,,,0.01,Wunderground v.1.15,2013-03-31 08:05:00,
2013-03-31 03:10:00,43.6,40.3,30.05,West,269,8.0,19.0,88,0.00,,,0.01,Wunderground v.1.15,2013-03-31 08:10:00,
2013-03-31 03:19:00,43.2,40.2,30.05,West,269,8.0,19.0,89,0.00,,,0.01,Wunderground v.1.15,2013-03-31 08:19:00,
2013-03-31 03:24:00,43.2,40.2,30.04,West,272,8.0,19.0,89,0.00,,,0.01,Wunderground v.1.15,2013-03-31 08:24:00,
2013-03-31 03:30:00,43.2,40.2,30.05,West,271,8.0,19.0,89,0.00,,,0.01,Wunderground v.1.15,2013-03-31 08:30:00,
2013-03-31 03:35:00,42.9,39.6,30.05,West,274,8.0,19.0,88,0.00,,,0.01,Wunderground v.1.15,2013-03-31 08:35:00,
2013-03-31 03:40:00,42.7,39.7,30.04,West,273,9.0,19.0,89,0.00,,,0.01,Wunderground v.1.15,2013-03-31 08:40:00,
2013-03-31 03:50:00,42.3,39.3,30.04,West,272,9.0,19.0,89,0.00,,,0.01,Wunderground v.1.15,2013-03-31 08:50:00,
2013-03-31 03:55:00,42.3,39.3,30.04,West,268,9.0,19.0,89,0.00,,,0.01,Wunderground v.1.15,2013-03-31 08:55:00,
2013-03-31 04:00:00,42.2,39.2,30.04,West,273,9.0,19.0,89,0.00,,,0.01,Wunderground v.1.15,2013-03-31 09:00:00,
2013-03-31 04:10:00,41.6,38.6,30.04,West,273,8.0,19.0,89,0.00,,,0.01,Wunderground v.1.15,2013-03-31 09:10:00,
2013-03-31 04:15:00,41.4,38.4,30.04,West,270,8.0,19.0,89,0.00,,,0.01,Wunderground v.1.15,2013-03-31 09:15:00,
2013-03-31 04:25:00,41.1,38.1,30.04,West,279,8.0,19.0,89,0.00,,,0.01,Wunderground v.1.15,2013-03-31 09:25:00,
2013-03-31 04:30:00,41.1,38.1,30.03,West,275,7.0,19.0,89,0.00,,,0.01,Wunderground v.1.15,2013-03-31 09:30:00,
2013-03-31 04:35:00,41.0,37.7,30.03,WNW,282,7.0,19.0,88,0.00,,,0.01,Wunderground v.1.15,2013-03-31 09:35:00,
2013-03-31 04:45:00,40.8,37.5,30.03,West,279,8.0,19.0,88,0.00,,,0.01,Wunderground v.1.15,2013-03-31 09:45:00,
2013-03-31 04:50:00,41.0,37.7,30.03,West,279,8.0,19.0,88,0.00,,,0.01,Wunderground v.1.15,2013-03-31 09:50:00,
2013-03-31 04:55:00,41.3,37.7,30.03,West,277,10.0,19.0,87,0.00,,,0.01,Wunderground v.1.15,2013-03-31 09:55:00,
2013-03-31 05:05:00,41.6,37.7,30.04,WNW,288,10.0,11.0,86,0.00,,,0.01,Wunderground v.1.15,2013-03-31 10:05:00,
2013-03-31 05:15:00,42.0,37.8,30.03,WNW,294,10.0,19.0,85,0.00,,,0.01,Wunderground v.1.15,2013-03-31 10:15:00,
2013-03-31 05:20:00,42.0,37.5,30.04,WNW,296,10.0,10.0,84,0.00,,,0.01,Wunderground v.1.15,2013-03-31 10:20:00,
2013-03-31 05:29:00,42.0,37.5,30.04,WNW,289,10.0,19.0,84,0.00,,,0.01,Wunderground v.1.15,2013-03-31 10:29:00,
2013-03-31 05:35:00,41.9,37.4,30.04,NW,305,10.0,19.0,84,0.00,,,0.01,Wunderground v.1.15,2013-03-31 10:35:00,
2013-03-31 05:40:00,41.9,37.1,30.04,NW,311,9.0,19.0,83,0.00,,,0.01,Wunderground v.1.15,2013-03-31 10:40:00,
2013-03-31 05:50:00,41.8,37.0,30.04,WNW,294,10.0,10.0,83,0.00,,,0.01,Wunderground v.1.15,2013-03-31 10:50:00,
2013-03-31 05:55:00,41.6,36.8,30.04,WNW,302,10.0,19.0,83,0.00,,,0.01,Wunderground v.1.15,2013-03-31 10:55:00,
2013-03-31 06:00:00,41.5,36.7,30.04,WNW,291,9.0,19.0,83,0.00,,,0.01,Wunderground v.1.15,2013-03-31 11:00:00,
2013-03-31 06:05:00,41.5,36.7,30.04,NW,320,10.0,19.0,83,0.00,,,0.01,Wunderground v.1.15,2013-03-31 11:05:00,
2013-03-31 06:15:00,41.0,36.2,30.05,WNW,294,9.0,19.0,83,0.00,,,0.01,Wunderground v.1.15,2013-03-31 11:15:00,
2013-03-31 06:20:00,40.7,36.2,30.05,WNW,293,9.0,9.0,84,0.00,,,0.01,Wunderground v.1.15,2013-03-31 11:20:00,
2013-03-31 06:30:00,40.5,36.0,30.04,NW,306,10.0,19.0,84,0.00,,,0.01,Wunderground v.1.15,2013-03-31 11:30:00,
2013-03-31 06:35:00,40.6,36.1,30.05,NW,309,11.0,19.0,84,0.00,,,0.01,Wunderground v.1.15,2013-03-31 11:35:00,
2013-03-31 06:44:00,40.9,36.1,30.05,NW,309,13.0,19.0,83,0.00,,,0.01,Wunderground v.1.15,2013-03-31 11:44:00,
2013-03-31 06:50:00,40.9,36.1,30.05,NW,325,13.0,19.0,83,0.00,,,0.01,Wunderground v.1.15,2013-03-31 11:50:00,
2013-03-31 06:55:00,40.7,35.9,30.05,NW,309,13.0,19.0,83,0.00,,,0.01,Wunderground v.1.15,2013-03-31 11:55:00,
2013-03-31 07:00:00,40.6,35.8,30.05,NW,305,13.0,13.0,83,0.00,,,0.01,Wunderground v.1.15,2013-03-31 12:00:00,
2013-03-31 07:10:00,40.3,35.5,30.05,NW,317,11.0,19.0,83,0.00,,,0.01,Wunderground v.1.15,2013-03-31 12:10:00,
2013-03-31 07:15:00,40.2,35.4,30.05,WNW,294,11.0,19.0,83,0.00,,,0.01,Wunderground v.1.15,2013-03-31 12:15:00,
2013-03-31 07:20:00,40.0,35.6,30.05,WNW,300,11.0,11.0,84,0.00,,,0.01,Wunderground v.1.15,2013-03-31 12:20:00,
2013-03-31 07:30:00,39.5,35.1,30.06,WNW,301,9.0,19.0,84,0.00,,,0.01,Wunderground v.1.15,2013-03-31 12:30:00,
2013-03-31 07:35:00,39.2,35.1,30.06,WNW,300,9.0,19.0,85,0.00,,,0.01,Wunderground v.1.15,2013-03-31 12:35:00,
2013-03-31 07:40:00,38.9,34.8,30.07,WNW,299,9.0,9.0,85,0.00,,,0.01,Wunderground v.1.15,2013-03-31 12:40:00,
2013-03-31 07:50:00,39.2,35.1,30.07,NW,308,9.0,19.0,85,0.00,,,0.01,Wunderground v.1.15,2013-03-31 12:50:00,
2013-03-31 07:55:00,39.2,35.1,30.07,WNW,292,9.0,19.0,85,0.00,,,0.01,Wunderground v.1.15,2013-03-31 12:55:00,
2013-03-31 08:05:00,39.2,35.4,30.08,WNW,294,9.0,19.0,86,0.00,,,0.01,Wunderground v.1.15,2013-03-31 13:05:00,
2013-03-31 08:10:00,39.5,35.7,30.08,WNW,286,10.0,10.0,86,0.00,,,0.01,Wunderground v.1.15,2013-03-31 13:10:00,
2013-03-31 08:15:00,39.7,35.9,30.08,NW,315,10.0,12.0,86,0.00,,,0.01,Wunderground v.1.15,2013-03-31 13:15:00,
2013-03-31 08:25:00,40.1,36.0,30.08,NW,311,13.0,19.0,85,0.00,,,0.01,Wunderground v.1.15,2013-03-31 13:25:00,
2013-03-31 08:30:00,40.2,36.3,30.08,NW,317,13.0,19.0,86,0.00,,,0.01,Wunderground v.1.15,2013-03-31 13:30:00,
2013-03-31 08:40:00,40.6,36.4,30.08,NNW,329,13.0,19.0,85,0.00,,,0.01,Wunderground v.1.15,2013-03-31 13:40:00,
2013-03-31 08:45:00,40.9,37.0,30.08,NNW,329,13.0,19.0,86,0.00,,,0.01,Wunderground v.1.15,2013-03-31 13:45:00,
2013-03-31 08:55:00,41.4,36.9,30.08,NW,308,12.0,19.0,84,0.00,,,0.01,Wunderground v.1.15,2013-03-31 13:55:00,
2013-03-31 09:00:00,41.6,36.8,30.08,NW,316,12.0,12.0,83,0.00,,,0.01,Wunderground v.1.15,2013-03-31 14:00:00,
2013-03-31 09:10:00,42.1,36.7,30.08,NW,323,12.0,12.0,81,0.00,,,0.01,Wunderground v.1.15,2013-03-31 14:10:00,
2013-03-31 09:15:00,42.5,37.1,30.07,NNW,333,12.0,19.0,81,0.00,,,0.01,Wunderground v.1.15,2013-03-31 14:15:00,
2013-03-31 09:20:00,42.7,37.3,30.07,NW,314,12.0,19.0,81,0.00,,,0.01,Wunderground v.1.15,2013-03-31 14:20:00,
2013-03-31 09:30:00,43.1,37.7,30.07,NW,321,11.0,11.0,81,0.00,,,0.01,Wunderground v.1.15,2013-03-31 14:30:00,
2013-03-31 09:35:00,43.4,38.0,30.07,NW,309,10.0,19.0,81,0.00,,,0.01,Wunderground v.1.15,2013-03-31 14:35:00,
2013-03-31 09:45:00,43.7,38.3,30.08,NNW,340,11.0,19.0,81,0.00,,,0.01,Wunderground v.1.15,2013-03-31 14:45:00,
2013-03-31 09:50:00,43.9,38.1,30.08,NW,317,11.0,19.0,80,0.00,,,0.01,Wunderground v.1.15,2013-03-31 14:50:00,
2013-03-31 09:55:00,44.1,38.3,30.08,NW,317,12.0,19.0,80,0.00,,,0.01,Wunderground v.1.15,2013-03-31 14:55:00,
2013-03-31 10:00:00,44.4,38.6,30.08,WNW,292,13.0,13.0,80,0.00,,,0.01,Wunderground v.1.15,2013-03-31 15:00:00,
2013-03-31 10:10:00,45.0,37.9,30.08,NNW,327,12.0,12.0,76,0.00,,,0.01,Wunderground v.1.15,2013-03-31 15:10:00,
2013-03-31 10:15:00,45.3,37.2,30.09,NW,324,12.0,16.0,73,0.00,,,0.01,Wunderground v.1.15,2013-03-31 15:15:00,
2013-03-31 10:25:00,46.0,36.4,30.09,WNW,302,11.0,19.0,69,0.00,,,0.01,Wunderground v.1.15,2013-03-31 15:25:00,
2013-03-31 10:30:00,46.6,37.0,30.09,NNW,344,9.0,9.0,69,0.00,,,0.01,Wunderground v.1.15,2013-03-31 15:30:00,
2013-03-31 10:35:00,47.0,36.6,30.08,NW,306,9.0,13.0,67,0.00,,,0.01,Wunderground v.1.15,2013-03-31 15:35:00,
2013-03-31 10:40:00,46.9,35.4,30.09,NW,319,10.0,19.0,64,0.00,,,0.01,Wunderground v.1.15,2013-03-31 15:40:00,
2013-03-31 10:50:00,47.6,36.0,30.09,WNW,289,9.0,9.0,64,0.00,,,0.01,Wunderground v.1.15,2013-03-31 15:50:00,
2013-03-31 10:55:00,47.8,35.4,30.08,WNW,302,9.0,19.0,62,0.00,,,0.01,Wunderground v.1.15,2013-03-31 15:55:00,
2013-03-31 11:00:00,47.9,35.1,30.08,NW,309,10.0,19.0,61,0.00,,,0.01,Wunderground v.1.15,2013-03-31 16:00:00,
2013-03-31 11:10:00,48.9,36.0,30.08,NW,323,9.0,19.0,61,0.00,,,0.01,Wunderground v.1.15,2013-03-31 16:10:00,
2013-03-31 11:15:00,49.0,34.9,30.08,North,5,9.0,19.0,58,0.00,,,0.01,Wunderground v.1.15,2013-03-31 16:15:00,
2013-03-31 11:20:00,49.6,35.0,30.08,NW,324,10.0,10.0,57,0.00,,,0.01,Wunderground v.1.15,2013-03-31 16:20:00,
2013-03-31 11:30:00,49.5,33.1,30.08,NNW,328,10.0,10.0,53,0.00,,,0.01,Wunderground v.1.15,2013-03-31 16:30:00,
2013-03-31 11:40:00,50.5,34.9,30.08,NW,313,10.0,19.0,55,0.00,,,0.01,Wunderground v.1.15,2013-03-31 16:40:00,
2013-03-31 11:45:00,50.5,34.5,30.08,NW,304,10.0,19.0,54,0.00,,,0.01,Wunderground v.1.15,2013-03-31 16:45:00,
2013-03-31 11:50:00,51.1,34.1,30.08,NW,326,10.0,10.0,52,0.00,,,0.01,Wunderground v.1.15,2013-03-31 16:50:00,
2013-03-31 12:00:00,52.0,34.4,30.08,WNW,302,10.0,10.0,51,0.00,,,0.01,Wunderground v.1.15,2013-03-31 17:00:00,
2013-03-31 12:05:00,52.3,34.2,30.08,NW,323,11.0,11.0,50,0.00,,,0.01,Wunderground v.1.15,2013-03-31 17:05:00,
2013-03-31 12:15:00,52.1,33.0,30.07,NNW,332,12.0,19.0,48,0.00,,,0.01,Wunderground v.1.15,2013-03-31 17:15:00,
2013-03-31 12:20:00,52.6,35.5,30.07,NW,322,10.0,19.0,52,0.00,,,0.01,Wunderground v.1.15,2013-03-31 17:20:00,
2013-03-31 12:25:00,52.9,32.1,30.07,NW,304,12.0,19.0,45,0.00,,,0.01,Wunderground v.1.15,2013-03-31 17:25:00,
2013-03-31 12:35:00,53.1,32.3,30.07,WNW,298,14.0,14.0,45,0.00,,,0.01,Wunderground v.1.15,2013-03-31 17:35:00,
2013-03-31 12:40:00,53.2,33.5,30.07,NW,311,13.0,19.0,47,0.00,,,0.01,Wunderground v.1.15,2013-03-31 17:40:00,
2013-03-31 12:49:00,53.4,33.7,30.07,NW,311,13.0,19.0,47,0.00,,,0.01,Wunderground v.1.15,2013-03-31 17:49:00,
2013-03-31 12:55:00,53.3,32.5,30.07,NNW,336,14.0,19.0,45,0.00,,,0.01,Wunderground v.1.15,2013-03-31 17:55:00,
2013-03-31 13:00:00,53.6,33.3,30.07,NNW,338,13.0,19.0,46,0.00,,,0.01,Wunderground v.1.15,2013-03-31 18:00:00,
2013-03-31 13:05:00,54.1,32.1,30.07,NW,314,11.0,19.0,43,0.00,,,0.01,Wunderground v.1.15,2013-03-31 18:05:00,
2013-03-31 13:15:00,54.4,34.6,30.07,NW,326,11.0,19.0,47,0.00,,,0.01,Wunderground v.1.15,2013-03-31 18:15:00,
2013-03-31 13:20:00,54.5,30.0,30.07,NW,311,12.0,12.0,39,0.00,,,0.01,Wunderground v.1.15,2013-03-31 18:20:00,
2013-03-31 13:30:00,54.6,32.5,30.06,WNW,302,11.0,19.0,43,0.00,,,0.01,Wunderground v.1.15,2013-03-31 18:30:00,
2013-03-31 13:35:00,54.7,30.8,30.06,NW,309,13.0,19.0,40,0.00,,,0.01,Wunderground v.1.15,2013-03-31 18:35:00,
2013-03-31 13:40:00,54.6,31.3,30.06,NW,317,13.0,13.0,41,0.00,,,0.01,Wunderground v.1.15,2013-03-31 18:40:00,
2013-03-31 13:50:00,55.4,33.3,30.06,WNW,292,9.0,19.0,43,0.00,,,0.01,Wunderground v.1.15,2013-03-31 18:50:00,
2013-03-31 13:55:00,55.4,32.7,30.05,NNE,19,9.0,19.0,42,0.00,,,0.01,Wunderground v.1.15,2013-03-31 18:55:00,
2013-03-31 14:05:00,56.0,32.6,30.05,NNW,336,8.0,10.0,41,0.00,,,0.01,Wunderground v.1.15,2013-03-31 19:05:00,
2013-03-31 14:10:00,56.2,33.4,30.05,NW,321,10.0,10.0,42,0.00,,,0.01,Wunderground v.1.15,2013-03-31 19:10:00,
2013-03-31 14:15:00,56.4,33.6,30.05,NNE,32,8.0,19.0,42,0.00,,,0.01,Wunderground v.1.15,2013-03-31 19:15:00,
2013-03-31 14:25:00,57.1,34.2,30.05,NNW,330,7.0,19.0,42,0.00,,,0.01,Wunderground v.1.15,2013-03-31 19:25:00,
2013-03-31 14:30:00,57.0,32.9,30.04,NW,312,7.0,19.0,40,0.00,,,0.01,Wunderground v.1.15,2013-03-31 19:30:00,
2013-03-31 14:40:00,57.1,33.6,30.04,NW,314,5.0,19.0,41,0.00,,,0.01,Wunderground v.1.15,2013-03-31 19:40:00,
2013-03-31 14:45:00,57.4,34.5,30.04,WNW,288,6.0,19.0,42,0.00,,,0.01,Wunderground v.1.15,2013-03-31 19:45:00,
2013-03-31 14:55:00,57.2,31.8,30.03,NW,311,7.0,19.0,38,0.00,,,0.01,Wunderground v.1.15,2013-03-31 19:55:00,
2013-03-31 15:00:00,57.8,34.8,30.03,NW,311,5.0,5.0,42,0.00,,,0.01,Wunderground v.1.15,2013-03-31 20:00:00,
2013-03-31 15:10:00,58.4,34.2,30.03,NW,316,5.0,19.0,40,0.00,,,0.01,Wunderground v.1.15,2013-03-31 20:10:00,
2013-03-31 15:15:00,58.2,33.3,30.02,North,360,5.0,19.0,39,0.00,,,0.01,Wunderground v.1.15,2013-03-31 20:15:00,
2013-03-31 15:20:00,57.9,33.1,30.02,NW,318,6.0,6.0,39,0.00,,,0.01,Wunderground v.1.15,2013-03-31 20:20:00,
2013-03-31 15:29:00,58.4,33.5,30.02,NW,305,5.0,5.0,39,0.00,,,0.01,Wunderground v.1.15,2013-03-31 20:29:00,
2013-03-31 15:35:00,58.6,35.0,30.02,NW,325,5.0,19.0,41,0.00,,,0.01,Wunderground v.1.15,2013-03-31 20:35:00,
2013-03-31 15:40:00,58.7,32.5,30.01,North,355,4.0,19.0,37,0.00,,,0.01,Wunderground v.1.15,2013-03-31 20:40:00,
2013-03-31 15:45:00,58.9,33.3,30.01,NW,326,5.0,19.0,38,0.00,,,0.01,Wunderground v.1.15,2013-03-31 20:45:00,
2013-03-31 15:55:00,58.9,32.0,30.01,NNW,331,6.0,19.0,36,0.00,,,0.01,Wunderground v.1.15,2013-03-31 20:55:00,
2013-03-31 16:05:00,58.9,33.3,30.01,NNW,336,5.0,19.0,38,0.00,,,0.01,Wunderground v.1.15,2013-03-31 21:05:00,
2013-03-31 16:10:00,59.1,32.1,30.01,NNW,340,4.0,4.0,36,0.00,,,0.01,Wunderground v.1.15,2013-03-31 21:10:00,
2013-03-31 16:15:00,60.3,35.2,30.01,NNW,338,3.0,19.0,39,0.00,,,0.01,Wunderground v.1.15,2013-03-31 21:15:00,
2013-03-31 16:25:00,60.3,31.8,30.01,NW,311,5.0,5.0,34,0.00,,,0.01,Wunderground v.1.15,2013-03-31 21:25:00,
2013-03-31 16:30:00,60.0,32.9,30.01,West,277,6.0,19.0,36,0.00,,,0.01,Wunderground v.1.15,2013-03-31 21:30:00,
2013-03-31 16:40:00,58.7,32.5,30.00,WNW,291,8.0,8.0,37,0.00,,,0.01,Wunderground v.1.15,2013-03-31 21:40:00,
2013-03-31 16:45:00,59.5,31.8,30.00,WNW,302,5.0,19.0,35,0.00,,,0.01,Wunderground v.1.15,2013-03-31 21:45:00,
2013-03-31 16:50:00,60.3,33.2,30.00,WNW,296,4.0,4.0,36,0.00,,,0.01,Wunderground v.1.15,2013-03-31 21:50:00,
2013-03-31 17:00:00,60.7,31.4,30.00,NNW,327,3.0,19.0,33,0.00,,,0.01,Wunderground v.1.15,2013-03-31 22:00:00,
2013-03-31 17:05:00,60.4,31.1,29.99,NW,317,5.0,19.0,33,0.00,,,0.01,Wunderground v.1.15,2013-03-31 22:05:00,
2013-03-31 17:15:00,59.5,32.5,29.99,WSW,238,5.0,19.0,36,0.00,,,0.01,Wunderground v.1.15,2013-03-31 22:15:00,
2013-03-31 17:20:00,59.4,32.4,29.99,SSW,198,6.0,19.0,36,0.00,,,0.01,Wunderground v.1.15,2013-03-31 22:20:00,
2013-03-31 17:25:00,59.4,31.7,29.99,SSW,205,5.0,19.0,35,0.00,,,0.01,Wunderground v.1.15,2013-03-31 22:25:00,
2013-03-31 17:35:00,59.5,31.8,29.98,West,265,5.0,19.0,35,0.00,,,0.01,Wunderground v.1.15,2013-03-31 22:35:00,
2013-03-31 17:40:00,59.7,32.7,29.98,West,264,5.0,19.0,36,0.00,,,0.01,Wunderground v.1.15,2013-03-31 22:40:00,
2013-03-31 17:45:00,59.8,31.3,29.98,South,181,4.0,19.0,34,0.00,,,0.01,Wunderground v.1.15,2013-03-31 22:45:00,
2013-03-31 17:55:00,59.8,32.1,29.97,SSE,167,3.0,5.0,35,0.00,,,0.01,Wunderground v.1.15,2013-03-31 22:55:00,
2013-03-31 18:05:00,59.9,32.2,29.96,SSE,165,2.0,19.0,35,0.00,,,0.01,Wunderground v.1.15,2013-03-31 23:05:00,
2013-03-31 18:10:00,59.9,33.5,29.96,SE,134,3.0,19.0,37,0.00,,,0.01,Wunderground v.1.15,2013-03-31 23:10:00,
2013-03-31 18:15:00,59.8,32.8,29.96,SSE,162,6.0,19.0,36,0.00,,,0.01,Wunderground v.1.15,2013-03-31 23:15:00,
2013-03-31 18:25:00,59.7,32.7,29.96,South,183,6.0,19.0,36,0.00,,,0.01,Wunderground v.1.15,2013-03-31 23:25:00,
2013-03-31 18:30:00,59.6,33.9,29.95,SSW,209,5.0,5.0,38,0.00,,,0.01,Wunderground v.1.15,2013-03-31 23:30:00,
2013-03-31 18:35:00,59.3,33.0,29.95,SSE,165,5.0,8.0,37,0.00,,,0.01,Wunderground v.1.15,2013-03-31 23:35:00,
2013-03-31 18:44:00,58.9,32.7,29.95,SSE,153,5.0,19.0,37,0.00,,,0.01,Wunderground v.1.15,2013-03-31 23:44:00,
2013-03-31 18:50:00,58.7,35.0,29.95,SSE,162,5.0,19.0,41,0.00,,,0.01,Wunderground v.1.15,2013-03-31 23:50:00,
2013-03-31 18:55:00,58.5,33.0,29.96,South,175,6.0,19.0,38,0.00,,,0.01,Wunderground v.1.15,2013-03-31 23:55:00,
2013-03-31 19:00:00,58.3,34.1,29.96,South,177,5.0,19.0,40,0.00,,,0.01,Wunderground v.1.15,2013-04-01 00:00:00,
2013-03-31 19:10:00,57.7,34.1,29.96,South,177,4.0,19.0,41,0.00,,,0.01,Wunderground v.1.15,2013-04-01 00:10:00,
2013-03-31 19:15:00,57.4,35.6,29.96,South,177,4.0,19.0,44,0.00,,,0.01,Wunderground v.1.15,2013-04-01 00:15:00,
2013-03-31 19:20:00,56.9,36.3,29.96,South,176,5.0,19.0,46,0.00,,,0.01,Wunderground v.1.15,2013-04-01 00:20:00,
2013-03-31 19:29:00,56.4,36.4,29.97,South,176,4.0,4.0,47,0.00,,,0.01,Wunderground v.1.15,2013-04-01 00:29:00,
2013-03-31 19:35:00,56.4,36.4,29.97,South,176,3.0,19.0,47,0.00,,,0.01,Wunderground v.1.15,2013-04-01 00:35:00,
2013-03-31 19:40:00,56.3,36.3,29.97,South,176,2.0,19.0,47,0.00,,,0.01,Wunderground v.1.15,2013-04-01 00:40:00,
2013-03-31 19:45:00,56.3,36.8,29.98,South,172,2.0,19.0,48,0.00,,,0.01,Wunderground v.1.15,2013-04-01 00:45:00,
2013-03-31 19:54:00,55.8,37.9,29.98,East,100,4.0,19.0,51,0.00,,,0.01,Wunderground v.1.15,2013-04-01 00:54:00,
2013-03-31 20:00:00,55.5,39.1,29.99,East,96,5.0,19.0,54,0.00,,,0.01,Wunderground v.1.15,2013-04-01 01:00:00,
2013-03-31 20:05:00,54.9,39.5,29.99,ENE,69,6.0,19.0,56,0.00,,,0.01,Wunderground v.1.15,2013-04-01 01:05:00,
2013-03-31 20:10:00,54.5,39.1,29.99,ENE,63,6.0,19.0,56,0.00,,,0.01,Wunderground v.1.15,2013-04-01 01:10:00,
2013-03-31 20:20:00,54.5,37.2,30.00,ENE,57,9.0,19.0,52,0.00,,,0.01,Wunderground v.1.15,2013-04-01 01:20:00,
2013-03-31 20:25:00,54.1,37.8,30.01,NE,47,11.0,19.0,54,0.00,,,0.01,Wunderground v.1.15,2013-04-01 01:25:00,
2013-03-31 20:30:00,53.7,37.0,30.02,NE,46,11.0,11.0,53,0.00,,,0.01,Wunderground v.1.15,2013-04-01 01:30:00,
2013-03-31 20:35:00,53.4,37.6,30.02,NE,50,9.0,19.0,55,0.00,,,0.01,Wunderground v.1.15,2013-04-01 01:35:00,
2013-03-31 20:45:00,52.1,39.1,30.03,NE,37,9.0,19.0,61,0.00,,,0.01,Wunderground v.1.15,2013-04-01 01:45:00,
2013-03-31 20:50:00,48.3,34.2,30.04,NE,34,13.0,24.0,58,0.00,,,0.01,Wunderground v.1.15,2013-04-01 01:50:00,
2013-03-31 20:55:00,45.6,33.3,30.04,NE,42,18.0,24.0,62,0.00,,,0.01,Wunderground v.1.15,2013-04-01 01:55:00,
2013-03-31 21:04:00,44.8,32.6,30.06,NNE,33,17.0,22.0,62,0.00,,,0.01,Wunderground v.1.15,2013-04-01 02:04:00,
2013-03-31 21:10:00,44.3,32.5,30.07,NE,55,16.0,16.0,63,0.00,,,0.01,Wunderground v.1.15,2013-04-01 02:10:00,
2013-03-31 21:15:00,44.0,32.2,30.07,NE,39,15.0,19.0,63,0.00,,,0.01,Wunderground v.1.15,2013-04-01 02:15:00,
2013-03-31 21:20:00,43.7,31.9,30.08,NE,40,15.0,15.0,63,0.00,,,0.01,Wunderground v.1.15,2013-04-01 02:20:00,
2013-03-31 21:30:00,43.4,31.2,30.09,NE,34,16.0,16.0,62,0.00,,,0.01,Wunderground v.1.15,2013-04-01 02:30:00,
2013-03-31 21:35:00,43.3,31.5,30.10,NE,54,15.0,19.0,63,0.00,,,0.01,Wunderground v.1.15,2013-04-01 02:35:00,
2013-03-31 21:40:00,43.2,31.1,30.09,NNE,30,15.0,19.0,62,0.00,,,0.01,Wunderground v.1.15,2013-04-01 02:40:00,
2013-03-31 21:45:00,43.0,30.9,30.10,NE,46,15.0,19.0,62,0.00,,,0.01,Wunderground v.1.15,2013-04-01 02:45:00,
2013-03-31 21:55:00,42.0,32.2,30.11,North,360,13.0,19.0,68,0.00,,,0.01,Wunderground v.1.15,2013-04-01 02:55:00,
2013-03-31 22:00:00,40.8,33.2,30.11,NNE,28,15.0,15.0,74,0.00,,,0.01,Wunderground v.1.15,2013-04-01 03:00:00,
2013-03-31 22:05:00,39.6,33.3,30.12,NE,44,18.0,18.0,78,0.00,,,0.01,Wunderground v.1.15,2013-04-01 03:05:00,
2013-03-31 22:15:00,38.1,33.4,30.13,NE,38,18.0,22.0,83,0.00,,,0.01,Wunderground v.1.15,2013-04-01 03:15:00,
2013-03-31 22:20:00,37.8,33.4,30.13,NE,46,18.0,18.0,84,0.00,,,0.01,Wunderground v.1.15,2013-04-01 03:20:00,
2013-03-31 22:25:00,37.5,33.7,30.13,NE,43,17.0,19.0,86,0.00,,,0.01,Wunderground v.1.15,2013-04-01 03:25:00,
2013-03-31 22:30:00,37.0,33.5,30.14,ENE,63,16.0,19.0,87,0.00,,,0.02,Wunderground v.1.15,2013-04-01 03:30:00,
2013-03-31 22:40:00,36.6,33.7,30.14,NNE,24,16.0,20.0,89,0.05,,,0.03,Wunderground v.1.15,2013-04-01 03:40:00,
2013-03-31 22:45:00,36.4,33.7,30.15,NNE,20,15.0,20.0,90,0.08,,,0.04,Wunderground v.1.15,2013-04-01 03:45:00,
2013-03-31 22:54:00,35.7,33.1,30.15,NE,55,15.0,19.0,90,0.06,,,0.04,Wunderground v.1.15,2013-04-01 03:54:00,
2013-03-31 23:00:00,35.5,32.9,30.16,NE,36,16.0,20.0,90,0.05,,,0.05,Wunderground v.1.15,2013-04-01 04:00:00,
2013-03-31 23:05:00,35.4,33.0,30.16,NE,38,16.0,20.0,91,0.05,,,0.05,Wunderground v.1.15,2013-04-01 04:05:00,
2013-03-31 23:14:00,34.9,32.5,30.16,NE,35,16.0,19.0,91,0.05,,,0.06,Wunderground v.1.15,2013-04-01 04:14:00,
2013-03-31 23:20:00,34.8,32.2,30.17,NNE,32,16.0,16.0,90,0.05,,,0.06,Wunderground v.1.15,2013-04-01 04:20:00,
2013-03-31 23:25:00,34.7,32.3,30.17,NNE,15,16.0,19.0,91,0.04,,,0.06,Wunderground v.1.15,2013-04-01 04:25:00,
2013-03-31 23:34:00,34.7,32.3,30.17,NNE,32,12.0,19.0,91,0.00,,,0.06,Wunderground v.1.15,2013-04-01 04:34:00,
2013-03-31 23:40:00,34.7,32.3,30.18,NNE,20,13.0,19.0,91,0.00,,,0.06,Wunderground v.1.15,2013-04-01 04:40:00,
2013-03-31 23:45:00,34.7,32.6,30.18,NNE,30,14.0,19.0,92,0.00,,,0.06,Wunderground v.1.15,2013-04-01 04:45:00,
2013-03-31 23:50:00,34.7,32.6,30.17,ENE,61,14.0,14.0,92,0.00,,,0.06,Wunderground v.1.15,2013-04-01 04:50:00,